SB KEPS @ AMSAT $ORB14030.O Orbital Elements 14030.OSCAR
HR AMSAT ORBITAL ELEMENTS FOR OSCAR SATELLITES FROM WA5QGD FORT WORTH,TX January 30, 2014 BID: ORB14030.O TO ALL RADIO AMATEURS BT
Satellite: AO-07 Catalog number: 07530 Epoch time: 14030.56388569 Element set: 883 Inclination: 101.4581 deg RA of node: 017.0087 deg Eccentricity: 0.0011802 Arg of perigee: 202.3269 deg Mean anomaly: 270.7644 deg Mean motion: 12.53601753 rev/day Decay rate: -3.2e-07 rev/day^2 Epoch rev: 79427 Checksum: 287
Satellite: FO-29 Catalog number: 24278 Epoch time: 14029.72986656 Element set: 295 Inclination: 098.5243 deg RA of node: 062.6360 deg Eccentricity: 0.0349491 Arg of perigee: 296.9011 deg Mean anomaly: 183.3585 deg Mean motion: 13.53014526 rev/day Decay rate: -2.5e-07 rev/day^2 Epoch rev: 86194 Checksum: 337
Satellite: SO-33 Catalog number: 25509 Epoch time: 14029.78178883 Element set: 679 Inclination: 031.4305 deg RA of node: 224.4686 deg Eccentricity: 0.0350431 Arg of perigee: 341.9804 deg Mean anomaly: 083.5643 deg Mean motion: 14.29290173 rev/day Decay rate: 4.35e-06 rev/day^2 Epoch rev: 79733 Checksum: 326
Satellite: RS-22 Catalog number: 27939 Epoch time: 14030.74933614 Element set: 176 Inclination: 097.8003 deg RA of node: 211.8125 deg Eccentricity: 0.0012985 Arg of perigee: 181.2278 deg Mean anomaly: 178.8898 deg Mean motion: 14.64839438 rev/day Decay rate: 1.081e-05 rev/day^2 Epoch rev: 55260 Checksum: 330
Satellite: VO-52 Catalog number: 28650 Epoch time: 14029.52566045 Element set: 645 Inclination: 097.5612 deg RA of node: 041.4933 deg Eccentricity: 0.0023996 Arg of perigee: 253.8377 deg Mean anomaly: 267.3304 deg Mean motion: 14.84682369 rev/day Decay rate: 2.591e-05 rev/day^2 Epoch rev: 47265 Checksum: 336
Satellite: HO-68 Catalog number: 36122 Epoch time: 14030.84233390 Element set: 281 Inclination: 100.2722 deg RA of node: 086.7948 deg Eccentricity: 0.0007428 Arg of perigee: 190.7567 deg Mean anomaly: 169.3379 deg Mean motion: 13.16311271 rev/day Decay rate: -4.3e-07 rev/day^2 Epoch rev: 19836 Checksum: 301
Satellite: AO-73 Catalog number: 39444 Epoch time: 14029.77084313 Element set: 50 Inclination: 097.7920 deg RA of node: 105.1157 deg Eccentricity: 0.0062779 Arg of perigee: 333.1197 deg Mean anomaly: 026.6774 deg Mean motion: 14.77432854 rev/day Decay rate: 1.786e-05 rev/day^2 Epoch rev: 902 Checksum: 319
/EX SB KEPS @ AMSAT $ORB14030.D Orbital Elements 14030.MICROS
HR AMSAT ORBITAL ELEMENTS FOR THE MICROSATS FROM WA5QGD FORT WORTH,TX January 30, 2014 BID: ORB14030.D TO ALL RADIO AMATEURS BT
Satellite: UO-11 Catalog number: 14781 Epoch time: 14030.04296610 Element set: 402 Inclination: 097.8714 deg RA of node: 092.7565 deg Eccentricity: 0.0007473 Arg of perigee: 268.3240 deg Mean anomaly: 091.7116 deg Mean motion: 14.81264307 rev/day Decay rate: 8.70e-06 rev/day^2 Epoch rev: 60751 Checksum: 286
Satellite: AO-16 Catalog number: 20439 Epoch time: 14030.06437738 Element set: 943 Inclination: 098.4963 deg RA of node: 330.0937 deg Eccentricity: 0.0010628 Arg of perigee: 201.9822 deg Mean anomaly: 219.9057 deg Mean motion: 14.32272609 rev/day Decay rate: 2.11e-06 rev/day^2 Epoch rev: 25471 Checksum: 294
Satellite: LO-19 Catalog number: 20442 Epoch time: 14030.05788663 Element set: 880 Inclination: 098.4666 deg RA of node: 331.1628 deg Eccentricity: 0.0011785 Arg of perigee: 191.7374 deg Mean anomaly: 168.3537 deg Mean motion: 14.32478644 rev/day Decay rate: 2.06e-06 rev/day^2 Epoch rev: 25490 Checksum: 320
Satellite: AO-27 Catalog number: 22825 Epoch time: 14029.89587035 Element set: 584 Inclination: 098.6476 deg RA of node: 336.8359 deg Eccentricity: 0.0007968 Arg of perigee: 350.9360 deg Mean anomaly: 045.3972 deg Mean motion: 14.29647295 rev/day Decay rate: 1.92e-06 rev/day^2 Epoch rev: 6102 Checksum: 349
Satellite: IO-26 Catalog number: 22826 Epoch time: 14029.84288734 Element set: 341 Inclination: 098.6417 deg RA of node: 337.0263 deg Eccentricity: 0.0008381 Arg of perigee: 343.1680 deg Mean anomaly: 016.9223 deg Mean motion: 14.29940106 rev/day Decay rate: 2.18e-06 rev/day^2 Epoch rev: 6114 Checksum: 292
Satellite: GO-32 Catalog number: 25397 Epoch time: 14030.87726821 Element set: 265 Inclination: 098.4507 deg RA of node: 354.1278 deg Eccentricity: 0.0001427 Arg of perigee: 044.9500 deg Mean anomaly: 008.2320 deg Mean motion: 14.23397467 rev/day Decay rate: 1.17e-06 rev/day^2 Epoch rev: 80833 Checksum: 294
Satellite: NO-44 Catalog number: 26931 Epoch time: 14030.47905763 Element set: 524 Inclination: 067.0526 deg RA of node: 033.5381 deg Eccentricity: 0.0005710 Arg of perigee: 268.6143 deg Mean anomaly: 091.4304 deg Mean motion: 14.30029482 rev/day Decay rate: 1.68e-06 rev/day^2 Epoch rev: 64391 Checksum: 283
Satellite: SO-50 Catalog number: 27607 Epoch time: 14030.87582329 Element set: 290 Inclination: 064.5567 deg RA of node: 290.7970 deg Eccentricity: 0.0033820 Arg of perigee: 063.2230 deg Mean anomaly: 006.5471 deg Mean motion: 14.73371704 rev/day Decay rate: 8.88e-06 rev/day^2 Epoch rev: 59725 Checksum: 311
Satellite: CO-55 Catalog number: 27844 Epoch time: 14030.59888390 Element set: 844 Inclination: 098.7006 deg RA of node: 041.3550 deg Eccentricity: 0.0008769 Arg of perigee: 316.2723 deg Mean anomaly: 155.5199 deg Mean motion: 14.21373813 rev/day Decay rate: 3.44e-06 rev/day^2 Epoch rev: 54903 Checksum: 321
Satellite: CO-57 Catalog number: 27848 Epoch time: 14030.57699281 Element set: 785 Inclination: 098.7098 deg RA of node: 040.9687 deg Eccentricity: 0.0008781 Arg of perigee: 323.8166 deg Mean anomaly: 162.3643 deg Mean motion: 14.21078700 rev/day Decay rate: 2.87e-06 rev/day^2 Epoch rev: 54895 Checksum: 357
Satellite: AO-51 Catalog number: 28375 Epoch time: 14029.92853618 Element set: 759 Inclination: 098.2350 deg RA of node: 341.6792 deg Eccentricity: 0.0084132 Arg of perigee: 051.0471 deg Mean anomaly: 350.0133 deg Mean motion: 14.41257396 rev/day Decay rate: 4.14e-06 rev/day^2 Epoch rev: 50399 Checksum: 307
Satellite: CP3 Catalog number: 31129 Epoch time: 14030.85128546 Element set: 662 Inclination: 097.9205 deg RA of node: 015.9455 deg Eccentricity: 0.0100696 Arg of perigee: 079.0347 deg Mean anomaly: 344.9310 deg Mean motion: 14.54168678 rev/day Decay rate: 1.536e-05 rev/day^2 Epoch rev: 36007 Checksum: 306
Satellite: CO-65 Catalog number: 32785 Epoch time: 14030.83985019 Element set: 855 Inclination: 097.7194 deg RA of node: 086.5643 deg Eccentricity: 0.0012661 Arg of perigee: 280.0320 deg Mean anomaly: 132.2693 deg Mean motion: 14.84620495 rev/day Decay rate: 1.808e-05 rev/day^2 Epoch rev: 31164 Checksum: 315
Satellite: PRISM Catalog number: 33493 Epoch time: 14030.83115136 Element set: 597 Inclination: 098.2363 deg RA of node: 200.8744 deg Eccentricity: 0.0017962 Arg of perigee: 169.7128 deg Mean anomaly: 190.4473 deg Mean motion: 14.87736863 rev/day Decay rate: 4.472e-05 rev/day^2 Epoch rev: 27174 Checksum: 321
Satellite: SOHLA-1 Catalog number: 33496 Epoch time: 14029.88095285 Element set: 261 Inclination: 098.1531 deg RA of node: 150.6434 deg Eccentricity: 0.0005538 Arg of perigee: 330.1641 deg Mean anomaly: 140.3881 deg Mean motion: 14.70557662 rev/day Decay rate: 6.84e-06 rev/day^2 Epoch rev: 26918 Checksum: 307
Satellite: TISAT-1 Catalog number: 36799 Epoch time: 14030.84374218 Element set: 862 Inclination: 098.0220 deg RA of node: 121.9108 deg Eccentricity: 0.0015229 Arg of perigee: 052.0953 deg Mean anomaly: 308.1638 deg Mean motion: 14.84507429 rev/day Decay rate: 2.767e-05 rev/day^2 Epoch rev: 19233 Checksum: 304
Satellite: STUDSAT Catalog number: 36801 Epoch time: 14028.90484932 Element set: 759 Inclination: 098.0373 deg RA of node: 125.6262 deg Eccentricity: 0.0010651 Arg of perigee: 034.0871 deg Mean anomaly: 101.3951 deg Mean motion: 14.92258849 rev/day Decay rate: 1.3398e-04 rev/day^2 Epoch rev: 19232 Checksum: 303
Satellite: ALMASAT-1 Catalog number: 38078 Epoch time: 14029.84777075 Element set: 916 Inclination: 069.4735 deg RA of node: 030.0647 deg Eccentricity: 0.0644304 Arg of perigee: 214.5163 deg Mean anomaly: 219.5383 deg Mean motion: 14.38167705 rev/day Decay rate: 3.0468e-04 rev/day^2 Epoch rev: 10166 Checksum: 317
Satellite: XATCOBEO Catalog number: 38082 Epoch time: 14030.86103515 Element set: 899 Inclination: 069.4635 deg RA of node: 326.9667 deg Eccentricity: 0.0415912 Arg of perigee: 180.4529 deg Mean anomaly: 286.7896 deg Mean motion: 14.96767039 rev/day Decay rate: 1.07475e-03 rev/day^2 Epoch rev: 10346 Checksum: 349
Satellite: CUBEBUG-1 Catalog number: 39153 Epoch time: 14030.73933553 Element set: 809 Inclination: 098.0538 deg RA of node: 111.3126 deg Eccentricity: 0.0019259 Arg of perigee: 074.4852 deg Mean anomaly: 285.8483 deg Mean motion: 14.77076341 rev/day Decay rate: 1.475e-05 rev/day^2 Epoch rev: 4126 Checksum: 306
Satellite: ESTCUBE-1 Catalog number: 39161 Epoch time: 14030.84097731 Element set: 779 Inclination: 098.1082 deg RA of node: 112.7363 deg Eccentricity: 0.0011272 Arg of perigee: 107.7912 deg Mean anomaly: 252.4519 deg Mean motion: 14.69494780 rev/day Decay rate: 1.195e-05 rev/day^2 Epoch rev: 3942 Checksum: 305
/EX SB KEPS @ AMSAT $ORB14030.W Orbital Elements 14030.WEATHER
HR AMSAT ORBITAL ELEMENTS FOR WEATHER SATELLITES FROM WA5QGD FORT WORTH,TX January 30, 2014 BID: ORB14030.W TO ALL RADIO AMATEURS BT
Satellite: NOAA-10 Catalog number: 16969 Epoch time: 14030.55905270 Element set: 655 Inclination: 098.5258 deg RA of node: 058.1955 deg Eccentricity: 0.0011101 Arg of perigee: 300.2350 deg Mean anomaly: 214.9789 deg Mean motion: 14.27709921 rev/day Decay rate: 1.07e-06 rev/day^2 Epoch rev: 42438 Checksum: 297
Satellite: NOAA-11 Catalog number: 19531 Epoch time: 14030.27505528 Element set: 678 Inclination: 098.6917 deg RA of node: 112.7720 deg Eccentricity: 0.0010476 Arg of perigee: 337.1142 deg Mean anomaly: 022.9563 deg Mean motion: 14.15053189 rev/day Decay rate: 1.07e-06 rev/day^2 Epoch rev: 30823 Checksum: 281
